[[{"header":{"parameterUnit":"m.s-1","parameterCategory":1,"la1":30.2991,"la2":30.254,"lo1":-89.0895,"lo2":-89.0444,"dy":0.0017,"dx":0.0017,"nx":28,"ny":28,"refTime":"2023-10-17T09:00:00:Z","depth":0,"parameterNumber":2,"parameterNumberName":"U-component_of_WINDS"},"data":[0,0,0,0,0,0,0,0,0,0,0,0,0,0,0,0,0,0,0,0,0,0,0,0,0,0,0,0,0,0,0,0,0,0,0,0,0,0,0,0,0,0,0,0,0,0,0,0,0,0,0,0,0,0,0,0,0,0,-1.4381,-1.4381,0,-1.4379,-1.4379,-1.4379,-1.4349,-1.4348,-1.4347,-1.4346,-1.4345,-1.4346,-1.4347,0,0,0,0,0,0,0,0,0,0,0,0,0,-1.4362,-1.4362,-1.4381,-1.4381,-1.4381,-1.4379,-1.4379,-1.4379,-1.4349,-1.4348,-1.4347,-1.4346,-1.4345,-1.4346,-1.4347,0,0,0,0,0,0,0,0,0,0,0,0,0,-1.4366,-1.4362,-1.4381,-1.4366,-1.4364,-1.4379,-1.4379,-1.4379,-1.4349,-1.4348,-1.4347,-1.4346,-1.4345,-1.4346,-1.4347,-1.4376,0,0,-1.435,-1.435,0,0,0,0,0,0,0,0,-1.4366,-1.4367,-1.4368,-1.4367,-1.4365,-1.4363,-1.4371,-1.4378,-1.4349,-1.4355,-1.4346,-1.4345,-1.4352,-1.4353,-1.4355,-1.4376,-1.4376,-1.435,-1.4351,-1.4351,-1.4351,0,0,0,0,0,0,0,-1.4365,-1.4367,-1.438,-1.4368,-1.4366,-1.436,-1.4359,-1.4372,-1.436,-1.4354,-1.4352,-1.4352,-1.4351,-1.4354,-1.4354,-1.4376,-1.435,-1.4351,-1.4352,-1.4352,-1.4422,-1.4423,0,0,0,0,0,0,-1.4367,-1.4367,-1.438,-1.438,-1.4363,-1.4361,-1.436,-1.4365,-1.436,-1.4358,-1.4353,-1.4351,-1.4353,-1.4353,-1.4354,-1.4388,-1.4351,-1.4352,-1.4353,-1.4421,-1.4422,-1.4424,0,0,0,0,0,0,-1.4367,-1.4368,-1.438,-1.4373,-1.4374,-1.4363,-1.4368,-1.4365,-1.4368,-1.4359,-1.4357,-1.4358,-1.4352,-1.4353,-1.4371,-1.4387,-1.4353,-1.4353,-1.4419,-1.4421,-1.4423,-1.4455,0,0,0,0,0,0,-1.4366,-1.4369,-1.4379,-1.4373,-1.4374,-1.4396,-1.4369,-1.4366,-1.4369,-1.4366,-1.4363,-1.4361,-1.4351,-1.437,-1.4372,-1.4388,-1.4354,-1.4418,-1.442,-1.4422,-1.4453,-1.4458,-1.4463,0,0,0,0,0,-1.4366,-1.4388,-1.4379,-1.4381,-1.4386,-1.4397,-1.4398,-1.4385,-1.4371,-1.4381,-1.4376,-1.4361,-1.4386,-1.4372,-1.4374,-1.4391,-1.4417,-1.4419,-1.4422,-1.445,-1.4457,-1.4462,0,0,0,0,0,0,-1.4396,-1.4387,-1.4377,-1.4398,-1.4399,-1.4392,-1.4404,-1.4392,-1.4397,-1.4394,-1.4379,-1.4379,-1.4399,-1.4397,-1.4382,-1.4419,-1.4399,-1.4402,-1.4419,-1.4425,-1.443,-1.443,-1.4355,0,0,0,0,0,-1.4405,-1.4414,-1.4406,-1.4425,-1.4426,-1.4416,-1.442,-1.441,-1.441,-1.441,-1.4406,-1.4407,-1.4415,-1.4421,-1.4427,-1.4453,-1.4452,-1.4466,-1.4471,-1.4475,-1.4478,-1.4492,-1.4498,-1.4433,-1.4433,-1.4433,0,0,-1.4423,-1.442,-1.4426,-1.4431,-1.443,-1.444,-1.4416,-1.4427,-1.4434,-1.4412,-1.4428,-1.4426,-1.4426,-1.4448,-1.4458,-1.4447,-1.4496,-1.4479,-1.4482,-1.4482,-1.4495,-1.4501,-1.4507,-1.4435,-1.4434,-1.4434,0,0,-1.4462,-1.4461,-1.4476,-1.4476,-1.4476,-1.4469,-1.4473,-1.4469,-1.4466,-1.4483,-1.4466,-1.4476,-1.449,-1.4491,-1.4493,-1.4535,-1.4521,-1.4538,-1.4563,-1.4577,-1.4582,-1.4586,-1.4601,-1.4606,-1.4541,-1.4541,-1.4541,0,-1.4485,-1.4499,-1.4486,-1.4499,-1.4502,-1.4483,-1.4499,-1.45,-1.4502,-1.4505,-1.4493,-1.4511,-1.451,-1.4532,-1.4542,-1.4545,-1.455,-1.4537,-1.4582,-1.4586,-1.459,-1.4604,-1.461,-1.4543,-1.4543,-1.4542,-1.4542,0,-1.4527,-1.4537,-1.4551,-1.4552,-1.4557,-1.4572,-1.4562,-1.4569,-1.456,-1.4555,-1.4573,-1.4571,-1.4578,-1.4583,-1.4574,-1.4604,-1.4598,-1.4585,-1.4563,-1.4599,-1.4611,-1.4616,-1.4546,-1.4545,-1.4544,-1.4544,0,0,-1.4582,-1.4578,-1.4583,-1.4584,-1.4583,-1.4591,-1.4606,-1.4612,-1.4618,-1.4621,-1.4633,-1.4646,-1.4634,-1.4637,-1.4629,-1.4641,-1.4674,-1.4627,-1.4626,-1.4635,-1.4707,-1.4716,-1.4722,-1.4667,-1.4667,-1.4668,-1.4707,0,-1.4618,-1.4642,-1.4632,-1.4656,-1.4666,-1.4649,-1.4662,-1.4664,-1.466,-1.4668,-1.4665,-1.4674,-1.4658,-1.466,-1.4671,-1.4668,-1.4688,-1.4665,-1.4677,-1.4678,-1.4676,-1.4729,-1.4738,-1.4774,-1.4712,-1.4713,-1.4713,0,-1.4663,-1.4668,-1.4693,-1.4691,-1.4695,-1.4707,-1.4712,-1.472,-1.4722,-1.4719,-1.4723,-1.4713,-1.4728,-1.4709,-1.473,-1.4714,-1.4719,-1.4718,-1.472,-1.4719,-1.4696,-1.4728,-1.4786,-1.4791,-1.4721,-1.472,-1.472,0,-1.4699,-1.4712,-1.4729,-1.4731,-1.4729,-1.4738,-1.4738,-1.4739,-1.4744,-1.4749,-1.4752,-1.476,-1.4764,-1.4771,-1.4763,-1.475,-1.4785,-1.4765,-1.4783,-1.4783,-1.4789,-1.4788,-1.4847,-1.4795,-1.4795,-1.4795,-1.4795,0,-1.474,-1.4756,-1.4745,-1.4756,-1.4774,-1.4763,-1.4782,-1.478,-1.4782,-1.4792,-1.4779,-1.4789,-1.4779,-1.4789,-1.4784,-1.4802,-1.4804,-1.4802,-1.48,-1.4802,-1.4802,-1.4804,-1.48,-1.4797,-1.4796,-1.4796,-1.4796,0,-1.4782,-1.4776,-1.4793,-1.4791,-1.4791,-1.4804,-1.4803,-1.4813,-1.481,-1.4823,-1.4826,-1.482,-1.4831,-1.4825,-1.4836,-1.4833,-1.4856,-1.4852,-1.4855,-1.4853,-1.4871,-1.4869,-1.4931,-1.4938,-1.4883,-1.4884,-1.4884,0,-1.4807,-1.4819,-1.4819,-1.4825,-1.4826,-1.4835,-1.484,-1.4832,-1.4838,-1.4842,-1.4852,-1.4862,-1.4868,-1.4887,-1.4885,-1.4894,-1.4888,-1.491,-1.4889,-1.4891,-1.4887,-1.4886,-1.4887,-1.4913,-1.4913,-1.4914,-1.4914,0,-1.4853,-1.485,-1.4857,-1.4864,-1.487,-1.4875,-1.4879,-1.4885,-1.4877,-1.4885,-1.4895,-1.4901,-1.4913,-1.4923,-1.4931,-1.4932,-1.4922,-1.4921,-1.4926,-1.4927,-1.4928,-1.4927,-1.4864,-1.4919,-1.4919,-1.4918,-1.4918,-1.4918,-1.4886,-1.4896,-1.4898,-1.4907,-1.4909,-1.4914,-1.4923,-1.4922,-1.493,-1.4939,-1.4934,-1.4947,-1.495,-1.496,-1.4963,-1.4973,-1.4965,-1.4972,-1.4973,-1.4974,-1.4976,-1.4928,-1.4975,-1.4975,-1.4975,-1.4975,-1.4975,0,-1.493,-1.4931,-1.4939,-1.4946,-1.4953,-1.4944,-1.4949,-1.4955,-1.4967,-1.4971,-1.4978,-1.4992,-1.5002,-1.5001,-1.5011,-1.502,-1.5015,-1.5022,-1.5021,-1.5021,-1.4984,-1.4978,-1.5026,-1.5026,-1.5026,-1.5026,-1.5026,-1.5026,-1.4954,-1.497,-1.4967,-1.4985,-1.4986,-1.4998,-1.5002,-1.5006,-1.5009,-1.5025,-1.5033,-1.5033,-1.5035,-1.5045,-1.5055,-1.5054,-1.5058,-1.5067,-1.5064,-1.5029,-1.5024,-1.5019,-1.5014,-1.5068,-1.5068,-1.5101,-1.5101,-1.5101]},{"header":{"parameterUnit":"m.s-1","parameterCategory":1,"la1":30.2991,"la2":30.254,"lo1":-89.0895,"lo2":-89.0444,"dy":0.0017,"dx":0.0017,"nx":28,"ny":28,"refTime":"2023-10-17T09:00:00:Z","depth":0,"parameterNumber":3,"parameterNumberName":"V-component_of_WINDS"},"data":[0,0,0,0,0,0,0,0,0,0,0,0,0,0,0,0,0,0,0,0,0,0,0,0,0,0,0,0,0,0,0,0,0,0,0,0,0,0,0,0,0,0,0,0,0,0,0,0,0,0,0,0,0,0,0,0,0,0,2.6819,2.6818,0,2.6805,2.6805,2.6804,2.6854,2.6856,2.6857,2.6859,2.684,2.6838,2.6836,0,0,0,0,0,0,0,0,0,0,0,0,0,2.6884,2.6883,2.6819,2.6818,2.6818,2.6805,2.6805,2.6804,2.6854,2.6856,2.6858,2.686,2.684,2.6838,2.6836,0,0,0,0,0,0,0,0,0,0,0,0,0,2.6862,2.6882,2.6819,2.6842,2.6844,2.6805,2.6805,2.6804,2.6854,2.6856,2.6858,2.686,2.6841,2.6838,2.6836,2.6773,0,0,2.6827,2.6826,0,0,0,0,0,0,0,0,2.6863,2.6859,2.6838,2.684,2.6842,2.6834,2.6821,2.6794,2.6853,2.685,2.6859,2.6862,2.6836,2.6833,2.6826,2.6772,2.6771,2.6827,2.6825,2.6824,2.6823,0,0,0,0,0,0,0,2.6864,2.686,2.6813,2.6838,2.684,2.6851,2.6851,2.6816,2.683,2.685,2.6854,2.6852,2.6837,2.6828,2.6826,2.6771,2.6827,2.6824,2.6822,2.6821,2.6665,2.6663,0,0,0,0,0,0,2.6863,2.6861,2.6813,2.6813,2.6858,2.6848,2.6848,2.6834,2.6831,2.6832,2.685,2.6854,2.6832,2.6829,2.6825,2.6752,2.6824,2.6821,2.6819,2.6668,2.6665,2.6662,0,0,0,0,0,0,2.6865,2.6859,2.6814,2.6838,2.6833,2.6845,2.6829,2.6833,2.6824,2.683,2.6833,2.6839,2.6834,2.6829,2.6786,2.6752,2.682,2.6817,2.667,2.6667,2.6663,2.6604,0,0,0,0,0,0,2.6866,2.6859,2.6836,2.6837,2.6832,2.6776,2.6827,2.6831,2.6819,2.6825,2.682,2.6822,2.6835,2.679,2.6783,2.6749,2.6815,2.6674,2.6669,2.6665,2.6609,2.6599,2.659,0,0,0,0,0,2.6869,2.6818,2.6834,2.6828,2.6803,2.6774,2.6771,2.6788,2.6817,2.6793,2.6797,2.6822,2.6757,2.6785,2.6778,2.6742,2.6676,2.667,2.6665,2.6613,2.6601,2.659,0,0,0,0,0,0,2.6811,2.6819,2.6837,2.6786,2.6779,2.6782,2.6753,2.6774,2.6758,2.6764,2.6785,2.6784,2.6737,2.6735,2.6767,2.6682,2.6721,2.6714,2.6684,2.6672,2.6663,2.6664,2.6812,0,0,0,0,0,2.6793,2.677,2.6777,2.6731,2.6727,2.6741,2.6729,2.6743,2.6736,2.6733,2.6734,2.6725,2.6703,2.6688,2.6667,2.6609,2.6609,2.6581,2.6572,2.6564,2.6557,2.6527,2.6515,2.6644,2.6644,2.6644,0,0,2.6754,2.6756,2.6739,2.672,2.6717,2.6691,2.6738,2.6709,2.669,2.6728,2.6688,2.6688,2.668,2.6629,2.6607,2.6627,2.6522,2.6557,2.6551,2.6548,2.652,2.6508,2.6497,2.664,2.6641,2.6642,0,0,2.6671,2.667,2.6632,2.6628,2.6623,2.6632,2.6623,2.6624,2.6626,2.6586,2.6615,2.6592,2.6553,2.6546,2.6537,2.6453,2.6475,2.6446,2.6396,2.6366,2.6355,2.6347,2.6316,2.6305,2.6439,2.6439,2.6439,0,2.6623,2.6587,2.6609,2.6579,2.6569,2.6605,2.6567,2.6561,2.6548,2.6541,2.6564,2.6516,2.6513,2.6461,2.6441,2.6433,2.6423,2.6446,2.6355,2.6347,2.6339,2.631,2.6299,2.6435,2.6436,2.6436,2.6436,0,2.6528,2.6503,2.6473,2.6462,2.6449,2.6415,2.6431,2.6415,2.6431,2.6438,2.6397,2.6395,2.6375,2.6364,2.6378,2.6314,2.6327,2.6352,2.6392,2.6322,2.6296,2.6285,2.643,2.6432,2.6433,2.6434,0,0,2.6407,2.6411,2.6399,2.6395,2.6393,2.6373,2.634,2.6322,2.6308,2.6299,2.6271,2.6238,2.6262,2.6252,2.6266,2.624,2.6173,2.6269,2.6269,2.6251,2.6103,2.6084,2.6071,2.6189,2.6187,2.6185,2.6104,0,2.6325,2.6271,2.629,2.6234,2.6211,2.6245,2.6216,2.6211,2.6217,2.6197,2.6203,2.6179,2.6212,2.6207,2.6182,2.6187,2.6144,2.6193,2.6162,2.6161,2.6163,2.6057,2.6036,2.596,2.6093,2.6092,2.609,0,2.6222,2.6211,2.6153,2.6155,2.6146,2.612,2.6106,2.6087,2.6082,2.6088,2.6078,2.6098,2.6065,2.6105,2.6059,2.6092,2.6081,2.6081,2.6079,2.6076,2.6121,2.6051,2.5936,2.5924,2.6074,2.6076,2.6077,0,2.614,2.611,2.6071,2.6067,2.6069,2.605,2.6049,2.6046,2.6035,2.6022,2.6015,2.5998,2.5988,2.5974,2.5989,2.6017,2.5941,2.5983,2.5944,2.5944,2.5926,2.5927,2.5807,2.5919,2.5919,2.5919,2.592,0,2.6047,2.601,2.6035,2.6011,2.597,2.5993,2.5952,2.5955,2.5952,2.5929,2.5957,2.5934,2.5955,2.5934,2.5945,2.5906,2.5901,2.5904,2.5908,2.5902,2.5901,2.5894,2.59,2.5916,2.5917,2.5918,2.5918,0,2.5947,2.5963,2.5923,2.5929,2.593,2.5899,2.5904,2.5881,2.589,2.586,2.5854,2.5867,2.5844,2.5857,2.5833,2.584,2.5789,2.58,2.5791,2.5794,2.5755,2.5758,2.5626,2.561,2.5732,2.5731,2.573,0,2.5887,2.5859,2.5863,2.585,2.5849,2.5828,2.5817,2.5838,2.5825,2.5818,2.5796,2.5776,2.5761,2.5722,2.5728,2.5709,2.572,2.5674,2.5717,2.5712,2.5719,2.572,2.5718,2.5666,2.5664,2.5663,2.5662,0,2.5777,2.5787,2.5771,2.5758,2.5744,2.5734,2.5727,2.5714,2.5736,2.572,2.5697,2.5686,2.5662,2.5641,2.5626,2.5624,2.5646,2.5649,2.5639,2.5632,2.5629,2.563,2.5768,2.5652,2.5653,2.5653,2.5654,2.5654,2.5696,2.5673,2.5673,2.5654,2.5651,2.5643,2.5623,2.563,2.5612,2.5596,2.5609,2.5582,2.5578,2.556,2.5556,2.5534,2.5552,2.5538,2.5534,2.553,2.5525,2.5633,2.5531,2.5532,2.5532,2.5532,2.5532,0,2.5588,2.559,2.5572,2.5562,2.5547,2.5571,2.5564,2.555,2.5526,2.5521,2.5507,2.5481,2.5461,2.5466,2.5448,2.543,2.544,2.5425,2.5426,2.5425,2.551,2.552,2.5417,2.5417,2.5417,2.5417,2.5417,2.5417,2.553,2.5494,2.5503,2.5465,2.5467,2.5442,2.5436,2.5429,2.5426,2.5396,2.5381,2.5385,2.5384,2.5366,2.5349,2.5351,2.5343,2.5324,2.5329,2.5408,2.5419,2.543,2.544,2.5322,2.5322,2.5247,2.5246,2.5246]}]]